Location: Tel Aviv
(32.0670°N, 34.7670°E)
Time: 08:16:09
(UTC+02:00)

Explorer 11/Cluster Stage 4 - Visible Passes

Search period start: 29 November 2023 00:00
Search period end: 09 December 2023 00:00
Orbit: 465 x 1228 km, 28.8° (Epoch: 28 November)

Date Brightness Start Highest point End Pass type
(mag) Time Alt. Az. Time Alt. Az. Time Alt. Az.
29 Nov 6.3 17:41:46 10° WSW 17:46:11 55° S 17:48:30 22° ESE visible
29 Nov 9.1 19:30:15 10° W 19:30:18 10° W 19:30:18 10° W visible
30 Nov 6.4 17:25:45 10° W 17:30:24 56° S 17:33:47 13° ESE visible
30 Nov 8.5 19:14:25 10° W 19:15:35 17° WSW 19:15:35 17° WSW visible
01 Dec 6.6 17:09:42 10° W 17:14:36 57° S 17:18:38 10° ESE visible
01 Dec 7.9 18:58:32 10° W 19:00:55 24° SW 19:00:55 24° SW visible
02 Dec 6.7 16:53:37 10° W 16:58:48 57° S 17:02:59 10° ESE visible
02 Dec 7.4 18:42:36 10° W 18:46:18 28° SSW 18:46:18 28° SSW visible
03 Dec 7.5 18:26:39 10° W 18:30:34 27° SSW 18:31:47 23° S visible
04 Dec 7.9 18:10:38 10° W 18:14:41 26° SSW 18:17:20 15° SSE visible
05 Dec 8.1 17:54:36 10° W 17:58:47 25° SSW 18:02:21 10° SSE visible
06 Dec 8.4 17:38:32 10° W 17:42:50 24° SSW 17:46:30 10° SSE visible
07 Dec 8.6 17:22:26 10° WSW 17:26:52 23° SSW 17:30:38 10° SSE visible
08 Dec 8.8 17:06:18 10° WSW 17:10:51 23° SSW 17:14:44 10° SSE visible
